SHIYAN 12 02 (SY-12 02)

Last updated on Sat Apr 13 2024 01:02:40 GMT+0100 (British Summer Time)

1 50322U 21129B 24103.69798618 -.00000054 00000+0 00000+0 0 9999 2 50322 1.6142 92.0163 0002220 210.2023 321.5533 1.00108195 8538
UTC large
Height (km)
Speed (km/s)
/
Latitude / Longitude
Inclination (degrees)
Orbital Period (minutes)
Azimuth
Elevation
Range (km)
Doppler Factor

Next 0 passes for location: London (51.5072 / 0.1276)

Sorry there are no passes over London.